[[{"header":{"parameterUnit":"m.s-1","parameterCategory":1,"la1":30.2991,"la2":30.254,"lo1":-89.0895,"lo2":-89.0444,"dy":0.0017,"dx":0.0017,"nx":28,"ny":28,"refTime":"2025-01-06T09:00:00:Z","depth":0,"parameterNumber":2,"parameterNumberName":"U-component_of_WINDS"},"data":[0,0,0,0,0,0,0,0,0,0,0,0,0,0,0,0,0,0,0,0,0,0,0,0,0,0,0,0,0,0,0,0,0,0,0,0,0,0,0,0,0,0,0,0,0,0,0,0,0,0,0,0,0,0,0,0,0,0,-1.4743,-1.4744,0,-1.4779,-1.478,-1.478,-1.47,-1.4697,-1.4695,-1.4692,-1.4732,-1.4735,-1.4738,0,0,0,0,0,0,0,0,0,0,0,0,0,-1.4606,-1.4609,-1.4743,-1.4744,-1.4744,-1.4779,-1.478,-1.478,-1.47,-1.4697,-1.4694,-1.4691,-1.473,-1.4734,-1.4739,0,0,0,0,0,0,0,0,0,0,0,0,0,-1.4656,-1.461,-1.4743,-1.4708,-1.4706,-1.4779,-1.478,-1.478,-1.4701,-1.4697,-1.4693,-1.469,-1.4729,-1.4734,-1.4739,-1.4848,0,0,-1.4755,-1.4757,0,0,0,0,0,0,0,0,-1.4653,-1.4661,-1.4713,-1.4711,-1.4708,-1.4731,-1.4745,-1.4803,-1.4702,-1.4703,-1.4692,-1.4688,-1.4735,-1.4739,-1.4754,-1.485,-1.4852,-1.4755,-1.4759,-1.4761,-1.4762,0,0,0,0,0,0,0,-1.465,-1.4659,-1.4757,-1.4714,-1.4711,-1.4691,-1.4694,-1.4756,-1.474,-1.4703,-1.4697,-1.4702,-1.4733,-1.475,-1.4755,-1.4852,-1.4755,-1.476,-1.4763,-1.4765,-1.5039,-1.5043,0,0,0,0,0,0,-1.4651,-1.4657,-1.4756,-1.4758,-1.4671,-1.4697,-1.47,-1.4728,-1.4739,-1.4737,-1.4705,-1.4698,-1.4743,-1.4749,-1.4756,-1.4885,-1.4761,-1.4766,-1.4769,-1.5035,-1.504,-1.5044,0,0,0,0,0,0,-1.4648,-1.466,-1.4755,-1.4706,-1.4717,-1.4703,-1.4735,-1.473,-1.4747,-1.4741,-1.4738,-1.4726,-1.474,-1.4749,-1.4826,-1.4885,-1.4768,-1.4773,-1.503,-1.5036,-1.5042,-1.5144,0,0,0,0,0,0,-1.4645,-1.466,-1.4702,-1.4708,-1.472,-1.4825,-1.4739,-1.4734,-1.4756,-1.4747,-1.476,-1.4758,-1.4738,-1.4818,-1.4831,-1.489,-1.4777,-1.5025,-1.5033,-1.504,-1.5135,-1.5153,-1.5168,0,0,0,0,0,-1.464,-1.4729,-1.4704,-1.4716,-1.4771,-1.4828,-1.4835,-1.4809,-1.4761,-1.4803,-1.4799,-1.4758,-1.4876,-1.4827,-1.484,-1.4902,-1.5021,-1.503,-1.504,-1.5128,-1.5149,-1.5168,0,0,0,0,0,0,-1.4732,-1.473,-1.4702,-1.4795,-1.4812,-1.4814,-1.4867,-1.4833,-1.4864,-1.4855,-1.4821,-1.4825,-1.4909,-1.4912,-1.4858,-1.5008,-1.494,-1.4953,-1.5003,-1.5023,-1.5039,-1.5038,-1.4781,0,0,0,0,0,-1.4763,-1.4809,-1.4804,-1.4887,-1.4897,-1.488,-1.4904,-1.4882,-1.4899,-1.4906,-1.4907,-1.4926,-1.4966,-1.4995,-1.5032,-1.5134,-1.5136,-1.5183,-1.5199,-1.5213,-1.5225,-1.5279,-1.53,-1.5075,-1.5075,-1.5075,0,0,-1.4828,-1.4832,-1.4863,-1.4906,-1.4917,-1.4965,-1.4887,-1.4942,-1.4978,-1.4915,-1.4988,-1.4989,-1.5007,-1.5097,-1.5137,-1.5103,-1.5287,-1.5225,-1.5236,-1.5241,-1.5291,-1.5313,-1.5332,-1.5082,-1.508,-1.5079,0,0,-1.4972,-1.4979,-1.5049,-1.5061,-1.5077,-1.5065,-1.5082,-1.5089,-1.5087,-1.5159,-1.5112,-1.5154,-1.5226,-1.524,-1.5257,-1.5404,-1.5368,-1.5417,-1.5504,-1.5557,-1.5575,-1.559,-1.5644,-1.5663,-1.5428,-1.5428,-1.5429,0,-1.5051,-1.5122,-1.509,-1.5148,-1.5168,-1.5111,-1.5182,-1.5195,-1.5223,-1.5239,-1.52,-1.5287,-1.5295,-1.5388,-1.5424,-1.5439,-1.5457,-1.5417,-1.5574,-1.559,-1.5604,-1.5655,-1.5675,-1.5434,-1.5434,-1.5433,-1.5433,0,-1.5219,-1.5269,-1.5324,-1.5352,-1.5377,-1.5442,-1.542,-1.545,-1.5425,-1.5417,-1.5491,-1.5498,-1.5535,-1.5555,-1.5532,-1.5645,-1.5623,-1.558,-1.5512,-1.5632,-1.5679,-1.5698,-1.5443,-1.5441,-1.5439,-1.5438,0,0,-1.5425,-1.5432,-1.5453,-1.5465,-1.5478,-1.5516,-1.5577,-1.5613,-1.564,-1.566,-1.5711,-1.5772,-1.5731,-1.575,-1.5728,-1.5774,-1.5891,-1.5725,-1.5725,-1.5757,-1.6017,-1.6051,-1.6074,-1.5865,-1.5869,-1.5872,-1.6016,0,-1.5569,-1.5674,-1.5646,-1.5751,-1.5797,-1.5741,-1.5795,-1.5808,-1.5802,-1.584,-1.5832,-1.5876,-1.5818,-1.583,-1.5873,-1.5868,-1.5943,-1.5856,-1.5914,-1.5916,-1.5914,-1.6098,-1.6135,-1.6271,-1.6034,-1.6037,-1.6039,0,-1.5751,-1.5778,-1.5888,-1.5892,-1.591,-1.5958,-1.5989,-1.6025,-1.6039,-1.6031,-1.6051,-1.6018,-1.6078,-1.6007,-1.609,-1.6032,-1.6053,-1.6054,-1.6058,-1.6065,-1.5987,-1.6112,-1.6314,-1.6335,-1.6067,-1.6065,-1.6063,0,-1.5893,-1.5956,-1.6029,-1.6041,-1.6047,-1.6083,-1.6087,-1.6096,-1.612,-1.6145,-1.616,-1.6193,-1.6212,-1.6238,-1.6215,-1.6165,-1.6302,-1.6229,-1.6298,-1.6299,-1.6332,-1.633,-1.6542,-1.6341,-1.6341,-1.6341,-1.634,0,-1.6058,-1.6128,-1.6093,-1.6139,-1.6215,-1.6181,-1.6257,-1.6255,-1.6264,-1.6308,-1.6261,-1.6304,-1.627,-1.6309,-1.6291,-1.6363,-1.6371,-1.6367,-1.6362,-1.6373,-1.6374,-1.6389,-1.6379,-1.6346,-1.6345,-1.6344,-1.6343,0,-1.623,-1.621,-1.6287,-1.6285,-1.6286,-1.6343,-1.6342,-1.6384,-1.6372,-1.6429,-1.644,-1.6423,-1.6467,-1.6445,-1.6492,-1.6479,-1.6573,-1.6553,-1.6568,-1.6564,-1.6635,-1.663,-1.6865,-1.6895,-1.6674,-1.6676,-1.6677,0,-1.6338,-1.6391,-1.6394,-1.642,-1.6427,-1.647,-1.6492,-1.646,-1.6486,-1.6504,-1.6544,-1.6584,-1.6614,-1.6687,-1.6679,-1.6713,-1.6696,-1.6776,-1.6701,-1.6711,-1.67,-1.6698,-1.6703,-1.6793,-1.6795,-1.6797,-1.6799,0,-1.6533,-1.6519,-1.6554,-1.6585,-1.6613,-1.6636,-1.6655,-1.6679,-1.6646,-1.6677,-1.6721,-1.6745,-1.6791,-1.6831,-1.6861,-1.6865,-1.6828,-1.6822,-1.684,-1.6853,-1.686,-1.6859,-1.6612,-1.6818,-1.6816,-1.6814,-1.6813,-1.6813,-1.6678,-1.6721,-1.6731,-1.677,-1.678,-1.6799,-1.6838,-1.6831,-1.6867,-1.6901,-1.6879,-1.6931,-1.6942,-1.6978,-1.6987,-1.7027,-1.6995,-1.7021,-1.7028,-1.7036,-1.7046,-1.6851,-1.7032,-1.7031,-1.7031,-1.703,-1.703,0,-1.6871,-1.6874,-1.691,-1.6938,-1.6969,-1.6928,-1.6946,-1.6975,-1.7021,-1.7034,-1.7064,-1.7114,-1.7152,-1.7146,-1.7181,-1.7214,-1.7198,-1.7224,-1.7223,-1.7225,-1.7072,-1.7053,-1.7237,-1.7237,-1.7237,-1.7237,-1.7237,-1.7237,-1.6976,-1.7048,-1.7036,-1.7112,-1.7113,-1.7163,-1.7177,-1.7194,-1.7204,-1.7262,-1.7293,-1.7288,-1.7293,-1.7327,-1.736,-1.7357,-1.7373,-1.7407,-1.7398,-1.7256,-1.7235,-1.7216,-1.7199,-1.741,-1.741,-1.7548,-1.7549,-1.755]},{"header":{"parameterUnit":"m.s-1","parameterCategory":1,"la1":30.2991,"la2":30.254,"lo1":-89.0895,"lo2":-89.0444,"dy":0.0017,"dx":0.0017,"nx":28,"ny":28,"refTime":"2025-01-06T09:00:00:Z","depth":0,"parameterNumber":3,"parameterNumberName":"V-component_of_WINDS"},"data":[0,0,0,0,0,0,0,0,0,0,0,0,0,0,0,0,0,0,0,0,0,0,0,0,0,0,0,0,0,0,0,0,0,0,0,0,0,0,0,0,0,0,0,0,0,0,0,0,0,0,0,0,0,0,0,0,0,0,-6.3293,-6.3294,0,-6.339,-6.3391,-6.3392,-6.3305,-6.3301,-6.3298,-6.3295,-6.3389,-6.3395,-6.34,0,0,0,0,0,0,0,0,0,0,0,0,0,-6.3027,-6.3033,-6.3293,-6.3294,-6.3295,-6.3389,-6.3391,-6.3392,-6.3306,-6.3301,-6.3297,-6.3293,-6.3387,-6.3394,-6.3401,0,0,0,0,0,0,0,0,0,0,0,0,0,-6.3135,-6.3034,-6.3293,-6.3264,-6.3262,-6.3389,-6.3391,-6.3392,-6.3306,-6.3301,-6.3296,-6.3291,-6.3385,-6.3393,-6.3402,-6.3561,0,0,-6.3428,-6.3432,0,0,0,0,0,0,0,0,-6.3129,-6.3145,-6.3267,-6.3266,-6.3264,-6.333,-6.3331,-6.3449,-6.3308,-6.3289,-6.3294,-6.3288,-6.3373,-6.3383,-6.3412,-6.3566,-6.357,-6.3429,-6.3434,-6.3438,-6.3441,0,0,0,0,0,0,0,-6.3122,-6.314,-6.3331,-6.3268,-6.3267,-6.3244,-6.3253,-6.3353,-6.336,-6.3291,-6.3285,-6.3297,-6.3372,-6.3404,-6.3414,-6.3571,-6.3429,-6.3437,-6.3442,-6.3445,-6.3857,-6.3862,0,0,0,0,0,0,-6.3118,-6.3135,-6.3328,-6.3334,-6.3182,-6.3253,-6.3263,-6.3314,-6.3358,-6.336,-6.3302,-6.3293,-6.3392,-6.3404,-6.3417,-6.3604,-6.3438,-6.3446,-6.3451,-6.3851,-6.3858,-6.3864,0,0,0,0,0,0,-6.3113,-6.3136,-6.3324,-6.3233,-6.3255,-6.3263,-6.3321,-6.3319,-6.3351,-6.3367,-6.3367,-6.3334,-6.3388,-6.3405,-6.3526,-6.3607,-6.345,-6.3458,-6.3845,-6.3853,-6.3861,-6.3982,0,0,0,0,0,0,-6.3105,-6.3135,-6.3197,-6.3235,-6.326,-6.3433,-6.3326,-6.3324,-6.3367,-6.3356,-6.3397,-6.3399,-6.3385,-6.3513,-6.3534,-6.3616,-6.3465,-6.3837,-6.3848,-6.3859,-6.3971,-6.3994,-6.4014,0,0,0,0,0,-6.3096,-6.3227,-6.3201,-6.3224,-6.3338,-6.3438,-6.3452,-6.3435,-6.3374,-6.3435,-6.3445,-6.3398,-6.3595,-6.3526,-6.3549,-6.3635,-6.3832,-6.3845,-6.3858,-6.3962,-6.399,-6.4013,0,0,0,0,0,0,-6.3197,-6.3231,-6.3203,-6.335,-6.3392,-6.3424,-6.3501,-6.3466,-6.3525,-6.3513,-6.3487,-6.3497,-6.3625,-6.3642,-6.3565,-6.379,-6.3703,-6.3721,-6.3774,-6.3801,-6.3822,-6.3814,-6.3472,0,0,0,0,0,-6.3237,-6.3317,-6.3342,-6.3469,-6.3492,-6.3493,-6.3536,-6.3519,-6.3561,-6.3578,-6.3596,-6.3638,-6.3708,-6.3755,-6.3822,-6.3973,-6.398,-6.4043,-6.4064,-6.4082,-6.4097,-6.4176,-6.4204,-6.3907,-6.3907,-6.3906,0,0,-6.3319,-6.3347,-6.3399,-6.349,-6.352,-6.3602,-6.3508,-6.3599,-6.3658,-6.3591,-6.3707,-6.3722,-6.3766,-6.3902,-6.3963,-6.392,-6.4181,-6.4098,-6.4112,-6.4118,-6.4192,-6.422,-6.4246,-6.3915,-6.3914,-6.3912,0,0,-6.351,-6.3541,-6.3649,-6.3682,-6.373,-6.3729,-6.3756,-6.3793,-6.38,-6.3916,-6.3866,-6.3936,-6.4059,-6.4092,-6.4125,-6.4326,-6.4284,-6.4349,-6.4459,-6.4537,-6.456,-6.458,-6.4651,-6.4676,-6.4364,-6.4365,-6.4365,0,-6.3606,-6.3729,-6.3709,-6.3803,-6.3843,-6.3787,-6.3895,-6.3927,-6.3994,-6.4022,-6.3973,-6.4125,-6.4151,-6.4293,-6.4342,-6.4372,-6.4398,-6.4344,-6.4559,-6.4579,-6.4598,-6.4664,-6.4691,-6.4372,-6.4371,-6.437,-6.437,0,-6.3843,-6.3928,-6.401,-6.4077,-6.4126,-6.4227,-6.422,-6.4272,-6.425,-6.4254,-6.4371,-6.44,-6.447,-6.4503,-6.4483,-6.4642,-6.4614,-6.4563,-6.4475,-6.4634,-6.4696,-6.4721,-6.4383,-6.438,-6.4378,-6.4376,0,0,-6.4101,-6.4155,-6.4185,-6.4214,-6.4262,-6.4326,-6.4423,-6.4493,-6.4537,-6.4584,-6.4664,-6.4768,-6.4721,-6.4758,-6.474,-6.4809,-6.4964,-6.4748,-6.4749,-6.4786,-6.5139,-6.5177,-6.5207,-6.4937,-6.4942,-6.4945,-6.5135,0,-6.4292,-6.4463,-6.4447,-6.4608,-6.4685,-6.4632,-6.4716,-6.4753,-6.476,-6.4824,-6.483,-6.4904,-6.4836,-6.4858,-6.4923,-6.4932,-6.5034,-6.4918,-6.5008,-6.5011,-6.4998,-6.524,-6.528,-6.5458,-6.5159,-6.5163,-6.5166,0,-6.454,-6.4596,-6.4765,-6.48,-6.4832,-6.4908,-6.4969,-6.5033,-6.5073,-6.5072,-6.5114,-6.5084,-6.5178,-6.5089,-6.5218,-6.5139,-6.5175,-6.5184,-6.5191,-6.5198,-6.5098,-6.5252,-6.5514,-6.5541,-6.5205,-6.5202,-6.5199,0,-6.4709,-6.4828,-6.4943,-6.497,-6.5014,-6.5068,-6.5088,-6.5123,-6.5166,-6.5219,-6.5245,-6.5309,-6.5343,-6.5391,-6.5378,-6.5315,-6.551,-6.542,-6.551,-6.551,-6.5553,-6.555,-6.5824,-6.5578,-6.5578,-6.5577,-6.5577,0,-6.4924,-6.5029,-6.502,-6.5091,-6.5206,-6.5186,-6.53,-6.5313,-6.5344,-6.5415,-6.5373,-6.544,-6.5419,-6.5485,-6.5475,-6.5582,-6.5598,-6.5599,-6.5594,-6.5602,-6.5602,-6.5624,-6.5611,-6.5584,-6.5583,-6.5581,-6.558,0,-6.5133,-6.5131,-6.5254,-6.5285,-6.5295,-6.5378,-6.5404,-6.547,-6.5472,-6.5562,-6.5582,-6.5585,-6.5659,-6.5651,-6.5735,-6.5728,-6.5861,-6.5842,-6.5848,-6.5843,-6.5933,-6.5924,-6.623,-6.6268,-6.5999,-6.6002,-6.6004,0,-6.527,-6.535,-6.5389,-6.5435,-6.5459,-6.5532,-6.5575,-6.5557,-6.5603,-6.5654,-6.5713,-6.5784,-6.584,-6.5962,-6.597,-6.6033,-6.6015,-6.6117,-6.6024,-6.6028,-6.6014,-6.6009,-6.6016,-6.6136,-6.6139,-6.6141,-6.6143,0,-6.5513,-6.5508,-6.5572,-6.5637,-6.5689,-6.5738,-6.5783,-6.5822,-6.5808,-6.5861,-6.5938,-6.5981,-6.6066,-6.6136,-6.6196,-6.6214,-6.6176,-6.6173,-6.6196,-6.6204,-6.6204,-6.6203,-6.5897,-6.6165,-6.6163,-6.6162,-6.616,-6.6159,-6.5689,-6.5756,-6.5795,-6.5867,-6.5899,-6.5941,-6.6004,-6.6014,-6.6078,-6.6147,-6.6132,-6.6218,-6.6253,-6.6329,-6.6353,-6.6418,-6.6381,-6.6416,-6.6424,-6.6433,-6.6443,-6.6194,-6.6429,-6.6428,-6.6428,-6.6427,-6.6427,0,-6.5928,-6.595,-6.6017,-6.6081,-6.6137,-6.6098,-6.6145,-6.6194,-6.627,-6.6307,-6.6363,-6.645,-6.6517,-6.6531,-6.6594,-6.6644,-6.6628,-6.6661,-6.6656,-6.6661,-6.6474,-6.6446,-6.6673,-6.6673,-6.6673,-6.6673,-6.6673,-6.6673,-6.606,-6.6171,-6.617,-6.6296,-6.6316,-6.6401,-6.643,-6.6468,-6.6498,-6.6597,-6.6653,-6.6662,-6.6689,-6.6754,-6.6813,-6.6815,-6.6839,-6.6879,-6.6874,-6.6699,-6.6674,-6.6651,-6.6625,-6.6885,-6.6886,-6.7056,-6.7058,-6.7059]}]]